When you browse on this site, cookies collect data to enhance your experience and personalize the content and advertising you see.
Visit our Privacy Policy to learn more. By continuing to use the site, you agree to this use of cookies and data.
  • Em Portugal
  • Lista de países
  • Para 7 dias
  • Temperatura da água
  • Mapa do tempo
  • Widgets de tempo
  • user-avatar
    Iniciar Sessão

    Previsão horária em Mundahan

    Hoje, 1 Abril, Quarta-feira

    Tempo Temperatura Precipitação Vento Pressão Humidade
    00:00 +33°C° 0 mm 3 m/s 740 mmHg 52%
    01:00 +32°C° 0 mm 4 m/s 739 mmHg 59%
    02:00 +31°C° 0 mm 3 m/s 739 mmHg 64%
    03:00 +30°C° 0 mm 2 m/s 739 mmHg 68%
    04:00 +29°C° 0 mm 2 m/s 739 mmHg 72%
    05:00 +29°C° 0 mm 2 m/s 740 mmHg 73%
    06:00 +29°C° 0 mm 2 m/s 740 mmHg 73%
    07:00 +30°C° 0 mm 3 m/s 741 mmHg 72%
    08:00 +33°C° 0 mm 3 m/s 742 mmHg 63%
    09:00 +35°C° 0 mm 3 m/s 742 mmHg 54%
    10:00 +37°C° 0 mm 4 m/s 743 mmHg 45%
    11:00 +38°C° 0 mm 3 m/s 742 mmHg 40%
    12:00 +40°C° 0 mm 3 m/s 741 mmHg 34%
    13:00 +40°C° 0 mm 2 m/s 740 mmHg 31%
    14:00 +40°C° 0 mm 3 m/s 740 mmHg 32%
    15:00 +40°C° 0 mm 3 m/s 739 mmHg 33%
    16:00 +39°C° 0 mm 3 m/s 739 mmHg 34%
    17:00 +38°C° 0.1 mm 3 m/s 739 mmHg 36%
    18:00 +37°C° 0.1 mm 2 m/s 739 mmHg 39%
    19:00 +35°C° 0 mm 1 m/s 739 mmHg 39%
    20:00 +35°C° 0.2 mm 2 m/s 740 mmHg 45%
    21:00 +32°C° 0.2 mm 2 m/s 741 mmHg 52%
    22:00 +31°C° 0.2 mm 3 m/s 741 mmHg 58%
    23:00 +30°C° 0.1 mm 3 m/s 741 mmHg 62%

    Amanhã, 2 Abril, Quinta-feira

    Tempo Temperatura Precipitação Vento Pressão Humidade
    00:00 +30°C° 0.1 mm 3 m/s 740 mmHg 66%
    01:00 +29°C° 0.1 mm 3 m/s 740 mmHg 70%
    02:00 +29°C° 0 mm 2 m/s 740 mmHg 72%
    03:00 +28°C° 0 mm 1 m/s 740 mmHg 74%
    04:00 +28°C° 0 mm 1 m/s 740 mmHg 76%
    05:00 +28°C° 0.3 mm 2 m/s 740 mmHg 76%
    06:00 +28°C° 0.3 mm 2 m/s 741 mmHg 75%
    07:00 +29°C° 0.3 mm 3 m/s 741 mmHg 74%
    08:00 +32°C° 0.2 mm 4 m/s 742 mmHg 62%
    09:00 +34°C° 0.2 mm 4 m/s 743 mmHg 50%
    10:00 +36°C° 0.2 mm 5 m/s 743 mmHg 38%
    11:00 +37°C° 0 mm 4 m/s 742 mmHg 36%
    12:00 +40°C° 0 mm 4 m/s 741 mmHg 34%
    13:00 +40°C° 0 mm 3 m/s 741 mmHg 32%
    14:00 +40°C° 0 mm 3 m/s 740 mmHg 31%
    15:00 +40°C° 0 mm 3 m/s 739 mmHg 31%
    16:00 +40°C° 0 mm 3 m/s 739 mmHg 31%
    17:00 +39°C° 0.2 mm 2 m/s 739 mmHg 35%
    18:00 +37°C° 0.2 mm 2 m/s 739 mmHg 38%
    19:00 +35°C° 0.2 mm 1 m/s 740 mmHg 42%
    20:00 +34°C° 0.6 mm 2 m/s 740 mmHg 48%
    21:00 +32°C° 0.6 mm 2 m/s 741 mmHg 54%
    22:00 +31°C° 0.6 mm 3 m/s 741 mmHg 60%
    23:00 +30°C° 0.1 mm 2 m/s 741 mmHg 63%

    Depois de amanhã, 3 Abril, Sexta-feira

    Tempo Temperatura Precipitação Vento Pressão Humidade
    00:00 +30°C° 0.1 mm 2 m/s 741 mmHg 67%
    01:00 +29°C° 0.1 mm 1 m/s 741 mmHg 70%
    02:00 +29°C° 0 mm 2 m/s 741 mmHg 72%
    03:00 +28°C° 0 mm 2 m/s 741 mmHg 74%
    04:00 +28°C° 0 mm 2 m/s 741 mmHg 76%
    05:00 +28°C° 0.3 mm 2 m/s 741 mmHg 75%
    06:00 +28°C° 0.3 mm 2 m/s 742 mmHg 75%
    07:00 +28°C° 0.3 mm 2 m/s 742 mmHg 74%
    08:00 +30°C° 0.1 mm 3 m/s 743 mmHg 64%
    09:00 +33°C° 0.1 mm 3 m/s 743 mmHg 53%
    10:00 +36°C° 0.1 mm 4 m/s 744 mmHg 43%
    11:00 +37°C° 0 mm 4 m/s 743 mmHg 39%
    12:00 +38°C° 0 mm 3 m/s 742 mmHg 36%
    13:00 +40°C° 0 mm 3 m/s 741 mmHg 32%
    14:00 +40°C° 0 mm 2 m/s 741 mmHg 32%
    15:00 +39°C° 0 mm 2 m/s 740 mmHg 31%
    16:00 +39°C° 0 mm 1 m/s 739 mmHg 31%
    17:00 +37°C° 0 mm 1 m/s 740 mmHg 34%
    18:00 +36°C° 0 mm 1 m/s 740 mmHg 37%
    19:00 +33°C° 0 mm 0 m/s 740 mmHg 39%
    20:00 +34°C° 0.1 mm 1 m/s 741 mmHg 42%
    21:00 +33°C° 0.1 mm 1 m/s 741 mmHg 45%
    22:00 +32°C° 0.1 mm 2 m/s 742 mmHg 48%
    23:00 +31°C° 0 mm 2 m/s 742 mmHg 54%

    4 Abril, Sábado

    Tempo Temperatura Precipitação Vento Pressão Humidade
    00:00 +31°C° 0 mm 2 m/s 741 mmHg 60%
    01:00 +30°C° 0 mm 1 m/s 741 mmHg 66%
    02:00 +29°C° 0 mm 1 m/s 741 mmHg 69%
    03:00 +29°C° 0 mm 1 m/s 741 mmHg 72%
    04:00 +28°C° 0 mm 2 m/s 741 mmHg 75%
    05:00 +28°C° 0 mm 2 m/s 741 mmHg 73%
    06:00 +29°C° 0 mm 3 m/s 742 mmHg 72%
    07:00 +29°C° 0 mm 3 m/s 742 mmHg 70%
    08:00 +31°C° 0 mm 3 m/s 743 mmHg 59%
    09:00 +35°C° 0 mm 4 m/s 743 mmHg 47%
    10:00 +37°C° 0 mm 4 m/s 744 mmHg 36%
    11:00 +39°C° 0 mm 3 m/s 743 mmHg 34%
    12:00 +40°C° 0 mm 2 m/s 742 mmHg 31%
    13:00 +41°C° 0 mm 2 m/s 741 mmHg 29%
    14:00 +40°C° 0 mm 1 m/s 741 mmHg 29%
    15:00 +40°C° 0 mm 1 m/s 740 mmHg 30%
    16:00 +40°C° 0 mm 1 m/s 739 mmHg 30%
    17:00 +37°C° 0 mm 1 m/s 740 mmHg 33%
    18:00 +37°C° 0 mm 2 m/s 740 mmHg 37%
    19:00 +36°C° 0 mm 2 m/s 740 mmHg 40%
    20:00 +34°C° 0 mm 3 m/s 741 mmHg 47%
    21:00 +33°C° 0 mm 4 m/s 742 mmHg 54%
    22:00 +32°C° 0 mm 4 m/s 742 mmHg 61%
    23:00 +30°C° 0 mm 4 m/s 742 mmHg 64%

    5 Abril, Domingo

    Tempo Temperatura Precipitação Vento Pressão Humidade
    00:00 +29°C° 0 mm 5 m/s 741 mmHg 67%
    01:00 +28°C° 0 mm 5 m/s 741 mmHg 70%
    02:00 +28°C° 0.1 mm 4 m/s 741 mmHg 73%
    03:00 +27°C° 0.1 mm 3 m/s 741 mmHg 76%
    04:00 +26°C° 0.1 mm 3 m/s 741 mmHg 78%
    05:00 +27°C° 0.2 mm 3 m/s 741 mmHg 78%
    06:00 +27°C° 0.2 mm 3 m/s 742 mmHg 77%
    07:00 +27°C° 0.2 mm 3 m/s 742 mmHg 77%
    08:00 +30°C° 0 mm 4 m/s 743 mmHg 64%
    09:00 +34°C° 0 mm 4 m/s 743 mmHg 51%
    10:00 +36°C° 0 mm 5 m/s 744 mmHg 39%
    11:00 +38°C° 0 mm 4 m/s 743 mmHg 36%
    12:00 +40°C° 0 mm 4 m/s 742 mmHg 33%
    13:00 +40°C° 0 mm 3 m/s 741 mmHg 30%
    14:00 +40°C° 0 mm 3 m/s 741 mmHg 30%
    15:00 +40°C° 0 mm 2 m/s 740 mmHg 31%
    16:00 +39°C° 0 mm 2 m/s 739 mmHg 31%
    17:00 +37°C° 0.1 mm 1 m/s 739 mmHg 35%
    18:00 +35°C° 0.1 mm 1 m/s 740 mmHg 40%
    19:00 +34°C° 0.1 mm 1 m/s 740 mmHg 44%
    20:00 +33°C° 0.4 mm 1 m/s 741 mmHg 50%
    21:00 +31°C° 0.4 mm 2 m/s 741 mmHg 56%
    22:00 +30°C° 0.4 mm 2 m/s 742 mmHg 63%
    23:00 +30°C° 0 mm 2 m/s 742 mmHg 66%

    6 Abril, Segunda-feira

    Tempo Temperatura Precipitação Vento Pressão Humidade
    00:00 +29°C° 0 mm 2 m/s 741 mmHg 69%
    01:00 +29°C° 0 mm 2 m/s 741 mmHg 72%
    02:00 +28°C° 0 mm 2 m/s 741 mmHg 73%
    03:00 +28°C° 0 mm 2 m/s 741 mmHg 74%
    04:00 +27°C° 0 mm 2 m/s 741 mmHg 75%
    05:00 +27°C° 0 mm 3 m/s 741 mmHg 75%
    06:00 +27°C° 0 mm 3 m/s 742 mmHg 75%
    07:00 +27°C° 0 mm 4 m/s 742 mmHg 75%
    08:00 +29°C° 0.3 mm 3 m/s 743 mmHg 68%
    09:00 +31°C° 0.3 mm 3 m/s 743 mmHg 61%
    10:00 +34°C° 0.3 mm 2 m/s 743 mmHg 54%
    11:00 +35°C° 0 mm 2 m/s 743 mmHg 49%
    12:00 +37°C° 0 mm 3 m/s 742 mmHg 43%
    13:00 +39°C° 0 mm 3 m/s 741 mmHg 37%
    14:00 +38°C° 0 mm 3 m/s 740 mmHg 37%
    15:00 +38°C° 0 mm 3 m/s 739 mmHg 37%
    16:00 +38°C° 0 mm 3 m/s 739 mmHg 36%
    17:00 +37°C° 0.1 mm 3 m/s 739 mmHg 42%
    18:00 +35°C° 0.1 mm 2 m/s 739 mmHg 47%
    19:00 +32°C° 0.1 mm 2 m/s 740 mmHg 53%
    20:00 +31°C° 0.6 mm 2 m/s 740 mmHg 59%
    21:00 +30°C° 0.6 mm 1 m/s 741 mmHg 65%
    22:00 +29°C° 0.6 mm 1 m/s 741 mmHg 71%
    23:00 +29°C° 0.1 mm 1 m/s 741 mmHg 73%
    Mostrar mais